• In Uzbekistan
  • List of Countries
  • For 7 days
  • Water Temperature
  • Satellite Maps
  • Weather Map
  • Weather Widgets
  • user-avatar
    Login

    Hourly Weather Shkoder

    Today, 27 April, Thursday

    Time Temperature Precipitation Wind Pressure Humidity
    00:00 +9°C° 0 mm 2 mps 740 mmHg 83%
    01:00 +9°C° 0 mm 2 mps 740 mmHg 82%
    02:00 +9°C° 0 mm 2 mps 740 mmHg 81%
    03:00 +9°C° 0 mm 2 mps 740 mmHg 79%
    04:00 +9°C° 0 mm 2 mps 740 mmHg 78%
    05:00 +12°C° 0 mm 2 mps 740 mmHg 72%
    06:00 +15°C° 0 mm 1 mps 740 mmHg 65%
    07:00 +18°C° 0 mm 1 mps 740 mmHg 59%
    08:00 +19°C° 0 mm 2 mps 740 mmHg 53%
    09:00 +20°C° 0 mm 2 mps 740 mmHg 48%
    10:00 +23°C° 0 mm 2 mps 740 mmHg 42%
    11:00 +23°C° 0 mm 2 mps 740 mmHg 41%
    12:00 +24°C° 0 mm 3 mps 740 mmHg 41%
    13:00 +24°C° 0 mm 3 mps 740 mmHg 40%
    14:00 +24°C° 0 mm 3 mps 739 mmHg 42%
    15:00 +22°C° 0 mm 3 mps 739 mmHg 44%
    16:00 +23°C° 0 mm 2 mps 739 mmHg 46%
    17:00 +19°C° 0 mm 2 mps 739 mmHg 56%
    18:00 +16°C° 0 mm 2 mps 739 mmHg 66%
    19:00 +14°C° 0 mm 1 mps 739 mmHg 75%
    20:00 +13°C° 0 mm 1 mps 739 mmHg 74%
    21:00 +13°C° 0 mm 1 mps 739 mmHg 74%
    22:00 +12°C° 0 mm 1 mps 740 mmHg 73%
    23:00 +12°C° 0 mm 1 mps 739 mmHg 71%

    Tomorrow, 28 April, Friday

    Time Temperature Precipitation Wind Pressure Humidity
    00:00 +12°C° 0 mm 1 mps 739 mmHg 69%
    01:00 +12°C° 0 mm 1 mps 739 mmHg 66%
    02:00 +12°C° 0 mm 1 mps 739 mmHg 66%
    03:00 +12°C° 0 mm 2 mps 739 mmHg 66%
    04:00 +12°C° 0 mm 2 mps 739 mmHg 65%
    05:00 +14°C° 0 mm 2 mps 739 mmHg 61%
    06:00 +16°C° 0 mm 2 mps 739 mmHg 56%
    07:00 +19°C° 0 mm 2 mps 739 mmHg 52%
    08:00 +20°C° 0 mm 2 mps 739 mmHg 47%
    09:00 +21°C° 0 mm 3 mps 738 mmHg 41%
    10:00 +24°C° 0 mm 3 mps 738 mmHg 36%
    11:00 +23°C° 0 mm 4 mps 738 mmHg 37%
    12:00 +23°C° 0 mm 4 mps 738 mmHg 39%
    13:00 +23°C° 0 mm 5 mps 737 mmHg 40%
    14:00 +22°C° 0 mm 4 mps 737 mmHg 45%
    15:00 +21°C° 0 mm 4 mps 737 mmHg 50%
    16:00 +20°C° 0 mm 3 mps 737 mmHg 55%
    17:00 +19°C° 0 mm 3 mps 737 mmHg 62%
    18:00 +17°C° 0 mm 3 mps 736 mmHg 69%
    19:00 +15°C° 0 mm 2 mps 736 mmHg 76%
    20:00 +14°C° 0 mm 2 mps 737 mmHg 74%
    21:00 +14°C° 0 mm 2 mps 737 mmHg 73%
    22:00 +14°C° 0 mm 2 mps 737 mmHg 71%
    23:00 +13°C° 0 mm 2 mps 737 mmHg 73%

    Day after tomorrow, 29 April, Saturday

    Time Temperature Precipitation Wind Pressure Humidity
    00:00 +13°C° 0 mm 2 mps 737 mmHg 74%
    01:00 +13°C° 0 mm 2 mps 736 mmHg 75%
    02:00 +13°C° 0 mm 2 mps 736 mmHg 78%
    03:00 +13°C° 0 mm 2 mps 736 mmHg 80%
    04:00 +12°C° 0 mm 2 mps 736 mmHg 83%
    05:00 +14°C° 0.3 mm 2 mps 736 mmHg 77%
    06:00 +15°C° 0.3 mm 2 mps 736 mmHg 72%
    07:00 +17°C° 0.3 mm 3 mps 736 mmHg 66%
    08:00 +17°C° 0.8 mm 3 mps 736 mmHg 68%
    09:00 +17°C° 0.8 mm 3 mps 736 mmHg 70%
    10:00 +17°C° 0.8 mm 3 mps 736 mmHg 72%
    11:00 +16°C° 2.6 mm 3 mps 736 mmHg 79%
    12:00 +14°C° 2.6 mm 3 mps 736 mmHg 85%
    13:00 +14°C° 2.6 mm 2 mps 736 mmHg 92%
    14:00 +14°C° 2.1 mm 2 mps 736 mmHg 93%
    15:00 +14°C° 2.1 mm 2 mps 737 mmHg 93%
    16:00 +14°C° 2.1 mm 1 mps 737 mmHg 93%
    17:00 +13°C° 0.4 mm 1 mps 737 mmHg 94%
    18:00 +12°C° 0.4 mm 1 mps 737 mmHg 95%
    19:00 +12°C° 0.4 mm 1 mps 738 mmHg 96%
    20:00 +11°C° 0 mm 1 mps 738 mmHg 96%
    21:00 +11°C° 0 mm 1 mps 738 mmHg 95%
    22:00 +10°C° 0 mm 2 mps 738 mmHg 94%
    23:00 +9°C° 0 mm 2 mps 738 mmHg 94%

    30 April, Sunday

    Time Temperature Precipitation Wind Pressure Humidity
    00:00 +9°C° 0 mm 2 mps 738 mmHg 94%
    01:00 +9°C° 0 mm 2 mps 738 mmHg 94%
    02:00 +9°C° 0 mm 3 mps 738 mmHg 94%
    03:00 +9°C° 0 mm 3 mps 738 mmHg 93%
    04:00 +9°C° 0 mm 3 mps 738 mmHg 93%
    05:00 +10°C° 0 mm 3 mps 739 mmHg 90%
    06:00 +11°C° 0 mm 3 mps 739 mmHg 86%
    07:00 +12°C° 0 mm 3 mps 739 mmHg 83%
    08:00 +14°C° 0 mm 3 mps 739 mmHg 73%
    09:00 +17°C° 0 mm 3 mps 739 mmHg 63%
    10:00 +19°C° 0 mm 3 mps 739 mmHg 53%
    11:00 +20°C° 0 mm 3 mps 738 mmHg 49%
    12:00 +21°C° 0 mm 3 mps 738 mmHg 46%
    13:00 +24°C° 0 mm 3 mps 737 mmHg 42%
    14:00 +22°C° 0 mm 3 mps 737 mmHg 44%
    15:00 +22°C° 0 mm 3 mps 737 mmHg 45%
    16:00 +22°C° 0 mm 3 mps 737 mmHg 47%
    17:00 +19°C° 0 mm 3 mps 737 mmHg 55%
    18:00 +17°C° 0 mm 3 mps 737 mmHg 63%
    19:00 +13°C° 0 mm 3 mps 737 mmHg 71%
    20:00 +13°C° 0 mm 3 mps 737 mmHg 71%
    21:00 +12°C° 0 mm 3 mps 738 mmHg 71%
    22:00 +12°C° 0 mm 3 mps 738 mmHg 72%
    23:00 +12°C° 0 mm 3 mps 738 mmHg 72%

    1 May, Monday

    Time Temperature Precipitation Wind Pressure Humidity
    00:00 +12°C° 0 mm 3 mps 738 mmHg 72%
    01:00 +11°C° 0 mm 3 mps 738 mmHg 72%
    02:00 +11°C° 0 mm 3 mps 738 mmHg 72%
    03:00 +12°C° 0 mm 2 mps 738 mmHg 72%
    04:00 +12°C° 0 mm 2 mps 738 mmHg 72%
    05:00 +14°C° 0 mm 2 mps 738 mmHg 69%
    06:00 +15°C° 0 mm 2 mps 738 mmHg 66%
    07:00 +17°C° 0 mm 2 mps 738 mmHg 63%
    08:00 +19°C° 0 mm 2 mps 738 mmHg 58%
    09:00 +22°C° 0 mm 1 mps 738 mmHg 52%
    10:00 +24°C° 0 mm 1 mps 738 mmHg 47%
    11:00 +25°C° 0.1 mm 1 mps 738 mmHg 48%
    12:00 +25°C° 0.1 mm 2 mps 738 mmHg 48%
    13:00 +26°C° 0.1 mm 2 mps 738 mmHg 49%
    14:00 +25°C° 0.4 mm 2 mps 738 mmHg 52%
    15:00 +25°C° 0.4 mm 2 mps 738 mmHg 55%
    16:00 +24°C° 0.4 mm 1 mps 738 mmHg 58%
    17:00 +22°C° 0.3 mm 1 mps 738 mmHg 67%
    18:00 +19°C° 0.3 mm 1 mps 738 mmHg 76%
    19:00 +16°C° 0.3 mm 1 mps 738 mmHg 85%
    20:00 +14°C° 0.1 mm 0 mps 738 mmHg 86%
    21:00 +14°C° 0.1 mm 0 mps 739 mmHg 87%
    22:00 +13°C° 0.1 mm 0 mps 739 mmHg 87%
    23:00 +13°C° 0.1 mm 0 mps 739 mmHg 87%

    2 May, Tuesday

    Time Temperature Precipitation Wind Pressure Humidity
    00:00 +13°C° 0.1 mm 0 mps 739 mmHg 87%
    01:00 +13°C° 0.1 mm 0 mps 739 mmHg 87%
    02:00 +14°C° 0 mm 1 mps 739 mmHg 87%
    03:00 +14°C° 0 mm 1 mps 739 mmHg 86%
    04:00 +14°C° 0 mm 1 mps 739 mmHg 86%
    05:00 +16°C° 0 mm 1 mps 739 mmHg 83%
    06:00 +19°C° 0 mm 1 mps 739 mmHg 79%
    07:00 +20°C° 0 mm 1 mps 739 mmHg 75%
    08:00 +22°C° 0.1 mm 1 mps 739 mmHg 69%
    09:00 +24°C° 0.1 mm 1 mps 739 mmHg 62%
    10:00 +26°C° 0.1 mm 1 mps 739 mmHg 55%
    11:00 +26°C° 0.7 mm 2 mps 739 mmHg 56%
    12:00 +26°C° 0.7 mm 2 mps 739 mmHg 57%
    13:00 +26°C° 0.7 mm 2 mps 739 mmHg 58%
    14:00 +26°C° 0.6 mm 2 mps 739 mmHg 60%
    15:00 +25°C° 0.6 mm 2 mps 739 mmHg 62%
    16:00 +25°C° 0.6 mm 2 mps 739 mmHg 64%
    17:00 +21°C° 0.4 mm 2 mps 739 mmHg 72%
    18:00 +20°C° 0.4 mm 1 mps 739 mmHg 80%
    19:00 +16°C° 0.4 mm 1 mps 739 mmHg 88%
    20:00 +16°C° 0.2 mm 1 mps 739 mmHg 88%
    21:00 +15°C° 0.2 mm 1 mps 739 mmHg 88%
    22:00 +15°C° 0.2 mm 1 mps 739 mmHg 88%
    23:00 +14°C° 0.1 mm 1 mps 739 mmHg 88%
    Show more